TimeCDT,TemperatureF,Dew PointF,Humidity,Sea Level PressureIn,VisibilityMPH,Wind Direction,Wind SpeedMPH,Gust SpeedMPH,PrecipitationIn,Events,Conditions,WindDirDegrees,DateUTC
12:53 AM,28.0,18.0,66,30.22,10.0,NNW,8.1,-,N/A,,Clear,330,2011-10-19 05:53:00
1:53 AM,30.0,19.9,66,30.22,10.0,NNW,8.1,-,N/A,,Mostly Cloudy,340,2011-10-19 06:53:00
2:53 AM,33.1,23.0,66,30.22,10.0,North,9.2,-,N/A,,Overcast,350,2011-10-19 07:53:00
3:53 AM,35.1,24.1,64,30.22,10.0,North,11.5,-,N/A,,Overcast,350,2011-10-19 08:53:00
4:53 AM,36.0,25.0,64,30.23,10.0,North,12.7,-,N/A,,Overcast,350,2011-10-19 09:53:00
5:53 AM,36.0,25.0,64,30.24,10.0,North,12.7,-,N/A,,Overcast,360,2011-10-19 10:53:00
6:53 AM,34.0,25.0,70,30.25,10.0,NNW,11.5,-,N/A,,Overcast,340,2011-10-19 11:53:00
7:53 AM,28.9,23.0,78,30.27,10.0,NNW,10.4,-,N/A,,Scattered Clouds,330,2011-10-19 12:53:00
8:53 AM,30.2,24.8,80,30.24,10.0,North,9.2,-,N/A,,Overcast,360,2011-10-19 13:53:00
9:53 AM,36.0,26.1,67,30.28,10.0,North,11.5,-,N/A,,Mostly Cloudy,360,2011-10-19 14:53:00
10:53 AM,37.9,27.0,65,30.28,10.0,NNW,8.1,-,N/A,,Clear,340,2011-10-19 15:53:00
11:53 AM,41.0,28.0,60,30.28,10.0,NNW,8.1,-,N/A,,Clear,330,2011-10-19 16:53:00
12:53 PM,44.1,28.0,53,30.27,10.0,North,10.4,-,N/A,,Clear,360,2011-10-19 17:53:00
1:53 PM,45.0,28.9,53,30.24,10.0,NNE,9.2,18.4,N/A,,Partly Cloudy,20,2011-10-19 18:53:00
2:53 PM,46.0,28.9,51,30.23,10.0,NNE,8.1,-,N/A,,Partly Cloudy,20,2011-10-19 19:53:00
3:53 PM,46.9,28.9,50,30.21,10.0,North,11.5,-,N/A,,Clear,10,2011-10-19 20:53:00
4:53 PM,46.9,28.9,50,30.19,10.0,NE,10.4,-,N/A,,Clear,40,2011-10-19 21:53:00
5:53 PM,45.0,28.9,53,30.19,10.0,NE,10.4,-,N/A,,Clear,40,2011-10-19 22:53:00
6:53 PM,41.0,28.0,60,30.20,10.0,NNE,6.9,-,N/A,,Clear,20,2011-10-19 23:53:00
7:53 PM,39.9,28.0,63,30.20,10.0,NE,9.2,-,N/A,,Clear,50,2011-10-20 00:53:00
8:53 PM,36.0,27.0,70,30.19,10.0,NNE,5.8,-,N/A,,Clear,30,2011-10-20 01:53:00
9:53 PM,33.1,26.1,75,30.20,10.0,NE,5.8,-,N/A,,Clear,50,2011-10-20 02:53:00
10:53 PM,32.0,26.1,79,30.19,10.0,NE,5.8,-,N/A,,Clear,50,2011-10-20 03:53:00
11:53 PM,30.9,25.0,79,30.18,10.0,NE,4.6,-,N/A,,Clear,40,2011-10-20 04:53:00